DW2536 Weather Reports


time (UTC)temp
C
wind
direction
speed
KPH
gust
KPH
rain 1hr
cm
rain 24hr
cm
rain mn
cm
humidity
%
barometer
mb
20260507093527 14 15 1.6 4.8 0.00 0.00 0.00 48 1017.7
20260507092516 13 119 3.2 6.4 0.00 0.00 0.00 49 1017.5
20260507091538 13 314 3.2 4.8 0.00 0.00 0.00 50 1017.5
20260507090540 13 305 3.2 4.8 0.00 0.00 0.00 52 1017.3
20260507085520 13 160 4.8 8.0 0.00 0.00 0.00 52 1017.2
20260507084523 13 78 3.2 9.7 0.00 0.00 0.00 53 1017.1
20260507083524 12 255 1.6 3.2 0.00 0.00 0.00 55 1017.0
20260507082526 12 203 3.2 6.4 0.00 0.00 0.00 56 1016.9
20260507081516 12 222 1.6 6.4 0.00 0.00 0.00 59 1016.7
20260507080517 12 38 1.6 6.4 0.00 0.00 0.00 59 1016.7
20260507075520 12 88 3.2 9.7 0.00 0.00 0.00 61 1016.8
20260507074521 11 104 3.2 8.0 0.00 0.00 0.00 62 1016.8
20260507073522 11 315 3.2 4.8 0.00 0.00 0.00 63 1016.8
20260507072544 11 112 1.6 6.4 0.00 0.00 0.00 65 1016.8
20260507071523 11 112 3.2 4.8 0.00 0.00 0.00 67 1016.9
20260507070521 10 116 3.2 4.8 0.00 0.00 0.00 69 1016.8
20260507065522 10 73 3.2 6.4 0.00 0.00 0.00 70 1016.7
20260507064524 10 77 3.2 6.4 0.00 0.00 0.00 72 1016.7
20260507063526 10 69 1.6 4.8 0.00 0.00 0.00 73 1016.6
20260507062521 9 67 3.2 3.2 0.00 0.00 0.00 75 1016.6
20260507061523 8 69 1.6 4.8 0.00 0.00 0.00 76 1016.5
20260507060523 8 56 1.6 3.2 0.00 0.00 0.00 76 1016.5
20260507055524 7 68 1.6 3.2 0.00 0.00 0.00 77 1016.5
20260507054526 7 69 0.0 1.6 0.00 0.00 0.00 77 1016.4
20260507053517 7 74 0.0 0.0 0.00 0.00 0.00 76 1016.3
20260507052517 6 325 0.0 3.2 0.00 0.00 0.00 76 1016.2
20260507051519 6 0.0 0.0 0.00 0.00 0.00 76 1016.0
20260507050517 5 0.0 0.0 0.00 0.00 0.00 76 1016.0
20260507045518 5 0.0 0.0 0.00 0.00 0.00 76 1016.0
20260507044519 5 0.0 0.0 0.00 0.00 0.00 75 1016.0
20260507043542 5 0.0 0.0 0.00 0.00 0.00 75 1016.0
20260507042518 5 0.0 0.0 0.00 0.00 0.00 75 1015.9
20260507041521 5 0.0 0.0 0.00 0.00 0.00 74 1015.8
20260507040521 5 0.0 0.0 0.00 0.00 0.00 74 1015.7
20260507035524 5 0.0 0.0 0.00 0.00 0.00 73 1015.6
20260507034521 5 0.0 0.0 0.00 0.00 0.00 73 1015.7
20260507033545 6 0.0 0.0 0.00 0.00 0.00 71 1015.8
20260507032526 6 0.0 0.0 0.00 0.00 0.00 71 1015.7
20260507031516 6 0.0 0.0 0.00 0.00 0.00 70 1015.6
20260507030518 6 0.0 0.0 0.00 0.00 0.00 70 1015.6
20260507025518 6 0.0 0.0 0.00 0.00 0.00 70 1015.6
20260507024541 6 0.0 0.0 0.00 0.00 0.00 70 1015.5
20260507023521 6 0.0 0.0 0.00 0.00 0.00 70 1015.5
20260507022522 7 0.0 0.0 0.00 0.00 0.00 70 1015.3
20260507021518 7 0.0 0.0 0.00 0.00 0.00 70 1015.2
20260507020519 7 0.0 1.6 0.00 0.00 0.00 69 1015.3
20260507015521 7 0.0 0.0 0.00 0.00 0.00 69 1015.3
20260507014515 7 0.0 0.0 0.00 0.00 0.00 69 1015.3
20260507013518 7 68 0.0 0.0 0.00 0.00 0.00 69 1015.3
20260507012521 7 80 0.0 1.6 0.00 0.00 0.00 69 1015.1
20260507011519 7 51 0.0 3.2 0.00 0.00 0.00 69 1015.0
20260507010521 7 110 0.0 3.2 0.00 0.00 0.00 68 1015.2
20260507005523 7 103 0.0 1.6 0.00 0.00 0.00 68 1015.3
20260507004523 8 47 0.0 3.2 0.00 0.00 0.00 68 1015.4
20260507003522 8 119 0.0 3.2 0.00 0.00 0.00 68 1015.5
20260507002522 8 95 1.6 4.8 0.00 0.00 0.00 67 1015.4
20260507001524 8 47 1.6 3.2 0.00 0.00 0.00 67 1015.3
20260507000524 8 55 1.6 3.2 0.00 0.00 0.00 67 1015.3
20260506235515 8 30 1.6 3.2 0.00 0.00 0.00 67 1015.3
20260506234517 8 106 1.6 6.4 0.00 0.00 0.00 67 1015.3
20260506233519 8 79 1.6 6.4 0.00 0.00 0.00 66 1015.3
20260506232519 8 63 1.6 4.8 0.00 0.00 0.00 66 1015.2
20260506231523 9 37 1.6 3.2 0.00 0.00 0.00 66 1015.2
20260506230525 9 81 1.6 4.8 0.00 0.00 0.00 65 1015.2
20260506225518 9 79 3.2 4.8 0.00 0.00 0.00 65 1015.3
20260506224532 9 76 1.6 3.2 0.00 0.00 0.00 65 1015.3
20260506223525 9 51 1.6 6.4 0.00 0.00 0.00 64 1015.3
20260506222523 10 56 1.6 4.8 0.00 0.00 0.00 64 1015.1
20260506221524 10 71 1.6 3.2 0.00 0.00 0.00 63 1015.0
20260506220525 10 92 1.6 4.8 0.00 0.00 0.00 63 1015.0
20260506215515 10 340 1.6 3.2 0.00 0.00 0.00 62 1015.0
20260506214522 10 42 1.6 3.2 0.00 0.00 0.00 62 1015.0
20260506213524 10 290 1.6 3.2 0.00 0.00 0.00 60 1014.9
20260506212545 10 15 0.0 1.6 0.00 0.00 0.00 59 1014.9
20260506211536 11 24 1.6 1.6 0.00 0.00 0.00 59 1014.8
20260506210538 11 121 1.6 3.2 0.00 0.00 0.00 59 1014.8
20260506205519 11 66 1.6 8.0 0.00 0.00 0.00 58 1014.8
20260506204521 11 79 1.6 4.8 0.00 0.00 0.00 57 1014.7
20260506203521 11 318 1.6 8.0 0.00 0.00 0.00 57 1014.6
20260506202519 12 249 1.6 4.8 0.00 0.00 0.00 56 1014.5
20260506201521 12 169 1.6 4.8 0.00 0.00 0.00 56 1014.4
20260506200523 12 61 3.2 6.4 0.00 0.00 0.00 55 1014.3
20260506195525 12 63 1.6 6.4 0.00 0.00 0.00 55 1014.2
20260506194527 12 13 4.8 4.8 0.00 0.00 0.00 55 1014.1
20260506193543 12 12 3.2 6.4 0.00 0.00 0.00 55 1014.0
20260506192522 12 131 4.8 4.8 0.00 0.00 0.00 54 1013.9
20260506191523 12 77 4.8 6.4 0.00 0.00 0.00 54 1013.8
20260506190524 12 85 4.8 6.4 0.00 0.00 0.00 54 1013.7
20260506185525 12 140 6.4 11.3 0.00 0.00 0.00 54 1013.7
20260506184515 12 118 4.8 8.0 0.00 0.00 0.00 53 1013.5
20260506183517 13 60 4.8 9.7 0.00 0.00 0.00 51 1013.3
20260506182518 13 118 6.4 9.7 0.00 0.00 0.00 50 1013.2
20260506181520 13 49 6.4 8.0 0.00 0.00 0.00 50 1013.0
20260506180521 13 72 8.0 16.1 0.00 0.00 0.00 50 1012.9
20260506175522 13 75 8.0 17.7 0.00 0.00 0.00 50 1012.8
20260506174546 13 92 6.4 9.7 0.00 0.00 0.00 51 1012.7
20260506173537 13 79 9.7 12.9 0.00 0.00 0.00 51 1012.5
20260506172538 13 57 4.8 16.1 0.00 0.00 0.00 50 1012.6
20260506171517 13 91 4.8 9.7 0.00 0.00 0.00 50 1012.7
20260506170520 13 109 6.4 12.9 0.00 0.00 0.00 49 1012.5
20260506165520 13 57 6.4 9.7 0.00 0.00 0.00 47 1012.5
20260506164521 13 85 4.8 11.3 0.00 0.00 0.00 45 1012.5
20260506163523 13 64 6.4 11.3 0.00 0.00 0.00 44 1012.6
20260506162546 13 98 4.8 11.3 0.00 0.00 0.00 43 1012.6
20260506161544 13 86 3.2 8.0 0.00 0.00 0.00 41 1012.5
20260506160523 13 108 4.8 11.3 0.00 0.00 0.00 40 1012.5
20260506155543 14 74 6.4 11.3 0.00 0.00 0.00 39 1012.5
20260506154524 14 59 4.8 8.0 0.00 0.00 0.00 39 1012.5
20260506153525 14 88 3.2 9.7 0.00 0.00 0.00 38 1012.6
20260506152525 15 143 6.4 8.0 0.00 0.00 0.00 41 1012.5
20260506151516 15 71 6.4 19.3 0.00 0.00 0.00 42 1012.3
20260506150517 15 72 4.8 8.0 0.00 0.00 0.00 46 1012.3
20260506145521 15 100 4.8 8.0 0.00 0.00 0.00 46 1012.3
20260506144522 15 61 6.4 11.3 0.00 0.00 0.00 42 1012.2
20260506143525 15 68 8.0 9.7 0.00 0.00 0.00 34 1012.2
20260506142516 16 68 9.7 16.1 0.00 0.00 0.00 33 1012.2
20260506141524 16 82 9.7 14.5 0.00 0.00 0.00 33 1012.2
20260506140515 16 96 9.7 20.9 0.00 0.00 0.00 32 1012.1
20260506135517 16 69 9.7 14.5 0.00 0.00 0.00 32 1012.1
20260506134541 16 73 9.7 16.1 0.00 0.00 0.00 32 1012.0
20260506133523 16 88 8.0 17.7 0.00 0.00 0.00 32 1011.9
20260506132525 16 96 9.7 12.9 0.00 0.00 0.00 32 1011.9
20260506131527 16 40 8.0 17.7 0.00 0.00 0.00 32 1012.0
20260506130516 16 112 9.7 12.9 0.00 0.00 0.00 32 1011.8
20260506125517 16 106 9.7 16.1 0.00 0.00 0.00 33 1011.7
20260506124518 16 76 9.7 22.5 0.00 0.00 0.00 33 1011.8
20260506123541 16 29 9.7 16.1 0.00 0.00 0.00 34 1011.9
20260506122521 16 90 9.7 17.7 0.00 0.00 0.00 33 1011.6
20260506121522 16 75 9.7 17.7 0.00 0.00 0.00 33 1011.4
20260506120523 16 126 9.7 20.9 0.00 0.00 0.00 34 1011.4
20260506115523 16 67 11.3 17.7 0.00 0.00 0.00 33 1011.5
20260506114523 15 79 9.7 19.3 0.00 0.00 0.00 33 1011.5
20260506113526 15 91 8.0 11.3 0.00 0.00 0.00 41 1011.5
20260506112536 15 72 8.0 12.9 0.00 0.00 0.00 42 1011.6
20260506111518 15 50 6.4 17.7 0.00 0.00 0.00 44 1011.7
20260506110518 15 108 6.4 12.9 0.00 0.00 0.00 44 1011.5
20260506105520 15 107 8.0 11.3 0.00 0.00 0.00 46 1011.3
20260506104519 15 89 6.4 9.7 0.00 0.00 0.00 47 1011.2
20260506103521 15 38 6.4 17.7 0.00 0.00 0.00 50 1011.2
20260506102524 15 118 8.0 12.9 0.00 0.00 0.00 52 1011.2
20260506101525 15 71 8.0 22.5 0.00 0.00 0.00 51 1011.3
20260506100525 14 147 6.4 11.3 0.00 0.00 0.00 53 1011.1
20260506095516 14 127 6.4 9.7 0.00 0.00 0.00 53 1011.0
20260506094528 14 96 6.4 14.5 0.00 0.00 0.00 52 1010.9